EWG20L EDDS-LIPZ

Flight info

Callsign EWG20L
Flight time 0h 50m
Altitude 31000
Route ROTWE5B ROTWE Y126 TUBLO N850 NATOR DCT TRA DCT ARGAX DCT RESIA DCT ATPED P131 ADOSA L612 ALBET
Aircraft A320/M-SDE3FGHIRWY/LB1

Departure

Time 2026-05-07 18:50
Airport Stuttgart Airport (EDDS)

Arrival

Time 2026-05-07 19:41
Airport Venice Marco Polo Airport (LIPZ)
Time Latitude Longitude Altitude Speed Heading
2026-05-07 18:10 48.68755 9.19460 1310 ft 0 kts 163°
2026-05-07 18:37 48.68739 9.19467 1309 ft 5 kts 163°
2026-05-07 18:37 48.68699 9.19494 1306 ft 7 kts 131°
2026-05-07 18:37 48.68710 9.19603 1303 ft 15 kts 71°
2026-05-07 18:37 48.68743 9.19771 1299 ft 19 kts 75°
2026-05-07 18:38 48.68799 9.19948 1295 ft 19 kts 50°
2026-05-07 18:38 48.68858 9.20138 1292 ft 22 kts 74°
2026-05-07 18:38 48.68902 9.20371 1287 ft 22 kts 73°
2026-05-07 18:38 48.68946 9.20601 1280 ft 24 kts 73°
2026-05-07 18:39 48.68995 9.20858 1276 ft 27 kts 74°
2026-05-07 18:39 48.69049 9.21142 1271 ft 29 kts 73°
2026-05-07 18:39 48.69102 9.21424 1261 ft 28 kts 74°
2026-05-07 18:39 48.69157 9.21717 1254 ft 28 kts 74°
2026-05-07 18:40 48.69209 9.21992 1255 ft 28 kts 74°
2026-05-07 18:40 48.69266 9.22288 1248 ft 28 kts 74°
2026-05-07 18:40 48.69322 9.22584 1248 ft 28 kts 73°
2026-05-07 18:40 48.69375 9.22867 1228 ft 27 kts 74°
2026-05-07 18:41 48.69430 9.23155 1222 ft 30 kts 73°
2026-05-07 18:41 48.69487 9.23456 1216 ft 30 kts 74°
2026-05-07 18:41 48.69540 9.23735 1210 ft 25 kts 74°
2026-05-07 18:41 48.69580 9.23950 1206 ft 19 kts 73°
2026-05-07 18:42 48.69609 9.24103 1202 ft 13 kts 75°
2026-05-07 18:42 48.69586 9.24221 1197 ft 11 kts 122°
2026-05-07 18:42 48.69568 9.24265 1195 ft 0 kts 122°
2026-05-07 18:46 48.69566 9.24269 1194 ft 1 kts 122°
2026-05-07 18:46 48.69558 9.24283 1194 ft 1 kts 133°
2026-05-07 18:47 48.69544 9.24297 1193 ft 4 kts 153°
2026-05-07 18:47 48.69507 9.24315 1191 ft 7 kts 164°
2026-05-07 18:47 48.69491 9.24322 1190 ft 0 kts 164°
2026-05-07 18:48 48.69490 9.24322 1190 ft 1 kts 164°
2026-05-07 18:48 48.69469 9.24331 1190 ft 6 kts 165°
2026-05-07 18:48 48.69427 9.24336 1190 ft 7 kts 185°
2026-05-07 18:48 48.69388 9.24299 1191 ft 5 kts 238°
2026-05-07 18:49 48.69383 9.24276 1192 ft 0 kts 252°
2026-05-07 18:49 48.69378 9.24251 1192 ft 12 kts 253°
2026-05-07 18:49 48.69281 9.23741 1202 ft 87 kts 254°
2026-05-07 18:49 48.69056 9.22554 1226 ft 145 kts 254°
2026-05-07 18:50 48.68751 9.20866 1500 ft 171 kts 256°
2026-05-07 18:50 48.68455 9.19133 2272 ft 170 kts 256°
2026-05-07 18:50 48.68139 9.17407 2836 ft 179 kts 256°
2026-05-07 18:50 48.67775 9.15460 3138 ft 201 kts 255°
2026-05-07 18:51 48.67371 9.13335 3383 ft 225 kts 255°
2026-05-07 18:51 48.66911 9.10932 3771 ft 250 kts 255°
2026-05-07 18:51 48.66411 9.08324 4389 ft 263 kts 254°
2026-05-07 18:51 48.65894 9.05647 5297 ft 266 kts 254°
2026-05-07 18:52 48.65370 9.02953 6245 ft 268 kts 254°
2026-05-07 18:52 48.64834 9.00250 7139 ft 269 kts 251°
2026-05-07 18:52 48.63928 8.97775 7996 ft 273 kts 229°
2026-05-07 18:52 48.62571 8.95758 8908 ft 274 kts 224°
2026-05-07 18:53 48.61176 8.93785 9798 ft 276 kts 224°
2026-05-07 18:53 48.59759 8.91796 10459 ft 286 kts 224°
2026-05-07 18:53 48.58246 8.89671 10705 ft 309 kts 224°
2026-05-07 18:53 48.56627 8.87396 11107 ft 324 kts 224°
2026-05-07 18:54 48.54961 8.85055 11777 ft 330 kts 224°
2026-05-07 18:54 48.53207 8.82778 12460 ft 336 kts 214°
2026-05-07 18:54 48.51064 8.81310 13138 ft 343 kts 199°
2026-05-07 18:54 48.48776 8.80222 13824 ft 347 kts 199°
2026-05-07 18:55 48.46452 8.79141 14435 ft 351 kts 198°
2026-05-07 18:55 48.44105 8.78061 15071 ft 354 kts 199°
2026-05-07 18:55 48.41741 8.76973 15738 ft 357 kts 199°
2026-05-07 18:55 48.39359 8.75877 16379 ft 359 kts 199°
2026-05-07 18:56 48.36960 8.74769 17021 ft 362 kts 199°
2026-05-07 18:56 48.34546 8.73652 17657 ft 364 kts 199°
2026-05-07 18:56 48.32112 8.72527 18290 ft 367 kts 199°
2026-05-07 18:56 48.29662 8.71395 18816 ft 370 kts 199°
2026-05-07 18:57 48.27224 8.70269 19328 ft 373 kts 199°
2026-05-07 18:57 48.24735 8.69118 19848 ft 376 kts 199°
2026-05-07 18:57 48.22221 8.67959 20365 ft 379 kts 199°
2026-05-07 18:57 48.19691 8.66793 20877 ft 381 kts 199°
2026-05-07 18:58 48.17145 8.65620 21370 ft 384 kts 199°
2026-05-07 18:58 48.14581 8.64439 21870 ft 387 kts 199°
2026-05-07 18:58 48.11997 8.63252 22355 ft 390 kts 199°
2026-05-07 18:58 48.09390 8.62060 22816 ft 393 kts 199°
2026-05-07 18:59 48.06769 8.60865 23276 ft 396 kts 199°
2026-05-07 18:59 48.04119 8.59660 23721 ft 399 kts 199°
2026-05-07 18:59 48.01454 8.58450 24099 ft 401 kts 199°
2026-05-07 18:59 47.98775 8.57232 24479 ft 404 kts 199°
2026-05-07 19:00 47.96080 8.56004 24859 ft 406 kts 199°
2026-05-07 19:00 47.93363 8.54765 25229 ft 409 kts 199°
2026-05-07 19:00 47.90641 8.53521 25587 ft 411 kts 199°
2026-05-07 19:00 47.87900 8.52271 25956 ft 413 kts 199°
2026-05-07 19:01 47.85138 8.51015 26326 ft 415 kts 199°
2026-05-07 19:01 47.82369 8.49759 26683 ft 418 kts 199°
2026-05-07 19:01 47.79582 8.48501 27030 ft 420 kts 199°
2026-05-07 19:01 47.76776 8.47239 27377 ft 422 kts 199°
2026-05-07 19:02 47.73872 8.46412 27714 ft 429 kts 187°
2026-05-07 19:02 47.70871 8.46483 28054 ft 436 kts 175°
2026-05-07 19:02 47.67901 8.47513 28366 ft 443 kts 163°
2026-05-07 19:02 47.65106 8.49495 28695 ft 450 kts 150°
2026-05-07 19:03 47.62611 8.52354 29005 ft 456 kts 139°
2026-05-07 19:03 47.60280 8.55561 29304 ft 458 kts 140°
2026-05-07 19:03 47.57935 8.58771 29602 ft 461 kts 140°
2026-05-07 19:03 47.55569 8.61995 29893 ft 463 kts 140°
2026-05-07 19:04 47.53220 8.65183 30168 ft 465 kts 140°
2026-05-07 19:04 47.50824 8.68422 30402 ft 467 kts 140°
2026-05-07 19:04 47.48417 8.71673 30644 ft 469 kts 140°
2026-05-07 19:04 47.46002 8.74931 30869 ft 471 kts 140°
2026-05-07 19:05 47.43579 8.78203 31028 ft 473 kts 140°
2026-05-07 19:05 47.41184 8.81440 31059 ft 461 kts 140°
2026-05-07 19:05 47.38837 8.84616 31058 ft 456 kts 141°
2026-05-07 19:06 47.34167 8.90903 31054 ft 453 kts 141°
2026-05-07 19:06 47.27176 9.00288 31054 ft 453 kts 141°
2026-05-07 19:07 47.22511 9.06520 31036 ft 453 kts 141°
2026-05-07 19:07 47.17867 9.12711 31038 ft 454 kts 141°
2026-05-07 19:08 47.13187 9.18934 31039 ft 454 kts 141°
2026-05-07 19:08 47.08494 9.25165 31034 ft 455 kts 141°
2026-05-07 19:09 47.03801 9.31385 31036 ft 455 kts 141°
2026-05-07 19:09 46.99103 9.37592 31024 ft 455 kts 142°
2026-05-07 19:10 46.94389 9.43798 31030 ft 455 kts 142°
2026-05-07 19:10 46.89675 9.49995 31029 ft 456 kts 142°
2026-05-07 19:11 46.84991 9.56144 31036 ft 456 kts 142°
2026-05-07 19:11 46.80263 9.62333 31032 ft 456 kts 142°
2026-05-07 19:12 46.75527 9.68512 31018 ft 456 kts 143°
2026-05-07 19:12 46.70787 9.74679 31026 ft 457 kts 143°
2026-05-07 19:13 46.66037 9.80850 31032 ft 458 kts 143°
2026-05-07 19:13 46.61273 9.87014 31037 ft 459 kts 143°
2026-05-07 19:14 46.56494 9.93179 31036 ft 459 kts 143°
2026-05-07 19:14 46.52524 9.98292 31015 ft 459 kts 143°
2026-05-07 19:15 46.47740 10.04442 31031 ft 460 kts 143°
2026-05-07 19:15 46.42877 10.10436 31031 ft 458 kts 146°
2026-05-07 19:16 46.37935 10.16274 31036 ft 458 kts 146°
2026-05-07 19:16 46.32996 10.22101 31030 ft 458 kts 146°
2026-05-07 19:17 46.28072 10.27972 31035 ft 459 kts 145°
2026-05-07 19:17 46.23112 10.33895 30849 ft 472 kts 145°
2026-05-07 19:18 46.20590 10.36884 30614 ft 477 kts 145°
2026-05-07 19:18 46.18024 10.39930 30361 ft 478 kts 145°
2026-05-07 19:18 46.15460 10.42971 30116 ft 477 kts 145°
2026-05-07 19:18 46.12899 10.46004 29832 ft 476 kts 145°
2026-05-07 19:19 46.10345 10.49024 29549 ft 474 kts 145°
2026-05-07 19:19 46.07800 10.52026 29237 ft 471 kts 146°
2026-05-07 19:19 46.05273 10.54999 28957 ft 468 kts 146°
2026-05-07 19:19 46.02757 10.57959 28683 ft 466 kts 145°
2026-05-07 19:20 46.00264 10.60900 28196 ft 460 kts 145°
2026-05-07 19:20 45.97801 10.63806 27569 ft 456 kts 145°
2026-05-07 19:20 45.95357 10.66675 26942 ft 451 kts 145°
2026-05-07 19:20 45.92934 10.69514 26336 ft 448 kts 144°
2026-05-07 19:21 45.90528 10.72330 25737 ft 445 kts 144°
2026-05-07 19:21 45.88139 10.75121 25143 ft 441 kts 144°
2026-05-07 19:21 45.85763 10.77890 24532 ft 438 kts 144°
2026-05-07 19:21 45.83409 10.80628 23981 ft 434 kts 144°
2026-05-07 19:22 45.81076 10.83345 23381 ft 430 kts 143°
2026-05-07 19:22 45.78767 10.86031 22834 ft 424 kts 143°
2026-05-07 19:22 45.76490 10.88675 22324 ft 418 kts 143°
2026-05-07 19:22 45.74272 10.91244 21860 ft 412 kts 143°
2026-05-07 19:23 45.72062 10.93807 21377 ft 406 kts 143°
2026-05-07 19:23 45.69881 10.96333 20912 ft 401 kts 143°
2026-05-07 19:23 45.67722 10.98831 20460 ft 397 kts 143°
2026-05-07 19:23 45.65613 11.01341 19995 ft 393 kts 139°
2026-05-07 19:24 45.63784 11.04230 19534 ft 392 kts 128°
2026-05-07 19:24 45.62278 11.07471 19057 ft 390 kts 124°
2026-05-07 19:24 45.60824 11.10729 18578 ft 388 kts 124°
2026-05-07 19:24 45.59372 11.13967 18065 ft 386 kts 124°
2026-05-07 19:25 45.57925 11.17183 17574 ft 384 kts 124°
2026-05-07 19:25 45.56487 11.20377 17088 ft 381 kts 124°
2026-05-07 19:25 45.55061 11.23542 16605 ft 379 kts 124°
2026-05-07 19:25 45.53637 11.26696 16119 ft 377 kts 124°
2026-05-07 19:26 45.52219 11.29832 15634 ft 375 kts 124°
2026-05-07 19:26 45.50808 11.32952 15154 ft 374 kts 124°
2026-05-07 19:26 45.49405 11.36060 14674 ft 372 kts 124°
2026-05-07 19:26 45.48009 11.39155 14181 ft 371 kts 124°
2026-05-07 19:27 45.46610 11.42239 13701 ft 370 kts 124°
2026-05-07 19:27 45.45216 11.45304 13208 ft 367 kts 124°
2026-05-07 19:27 45.43852 11.48303 13062 ft 354 kts 124°
2026-05-07 19:27 45.42493 11.51154 12877 ft 343 kts 130°
2026-05-07 19:28 45.40951 11.53642 12628 ft 339 kts 133°
2026-05-07 19:28 45.39319 11.56224 12140 ft 344 kts 133°
2026-05-07 19:28 45.37770 11.58676 11635 ft 331 kts 134°
2026-05-07 19:28 45.36073 11.60770 11138 ft 317 kts 149°
2026-05-07 19:29 45.34220 11.62378 10647 ft 308 kts 150°
2026-05-07 19:29 45.32432 11.63919 10434 ft 292 kts 150°
2026-05-07 19:29 45.30709 11.65398 10221 ft 287 kts 150°
2026-05-07 19:29 45.29139 11.67116 9963 ft 286 kts 131°
2026-05-07 19:30 45.27956 11.69393 9665 ft 288 kts 125°
2026-05-07 19:30 45.26852 11.71747 9401 ft 285 kts 124°
2026-05-07 19:30 45.25763 11.74095 9135 ft 284 kts 124°
2026-05-07 19:30 45.24681 11.76426 8872 ft 282 kts 124°
2026-05-07 19:31 45.23603 11.78747 8622 ft 281 kts 124°
2026-05-07 19:31 45.22530 11.81059 8367 ft 280 kts 124°
2026-05-07 19:31 45.21459 11.83363 8112 ft 278 kts 124°
2026-05-07 19:31 45.20395 11.85652 7854 ft 277 kts 124°
2026-05-07 19:32 45.19365 11.87952 7606 ft 276 kts 117°
2026-05-07 19:32 45.18833 11.90506 7360 ft 275 kts 94°
2026-05-07 19:32 45.19041 11.93172 7105 ft 273 kts 70°
2026-05-07 19:32 45.19983 11.95512 6496 ft 277 kts 45°
2026-05-07 19:33 45.21365 11.97407 5881 ft 276 kts 42°
2026-05-07 19:33 45.22757 11.99279 5405 ft 275 kts 43°
2026-05-07 19:33 45.24139 12.01151 4954 ft 274 kts 43°
2026-05-07 19:33 45.25467 12.02961 4804 ft 253 kts 43°
2026-05-07 19:34 45.26685 12.04628 4749 ft 237 kts 43°
2026-05-07 19:34 45.27849 12.06202 4672 ft 226 kts 41°
2026-05-07 19:34 45.28989 12.07673 4583 ft 217 kts 40°
2026-05-07 19:34 45.30093 12.09077 4485 ft 210 kts 40°
2026-05-07 19:35 45.31165 12.10440 4396 ft 209 kts 40°
2026-05-07 19:35 45.32228 12.11794 4342 ft 195 kts 40°
2026-05-07 19:35 45.33198 12.13031 4195 ft 182 kts 40°
2026-05-07 19:35 45.34126 12.14212 3977 ft 176 kts 40°
2026-05-07 19:36 45.35035 12.15371 3766 ft 175 kts 40°
2026-05-07 19:36 45.35940 12.16525 3524 ft 175 kts 40°
2026-05-07 19:36 45.36845 12.17680 3296 ft 175 kts 41°
2026-05-07 19:36 45.37748 12.18832 3074 ft 174 kts 41°
2026-05-07 19:37 45.38635 12.19964 2848 ft 174 kts 41°
2026-05-07 19:37 45.39532 12.21111 2619 ft 174 kts 42°
2026-05-07 19:37 45.40431 12.22261 2390 ft 173 kts 42°
2026-05-07 19:37 45.41323 12.23401 2156 ft 171 kts 43°
2026-05-07 19:38 45.42204 12.24528 1911 ft 167 kts 44°
2026-05-07 19:38 45.43049 12.25609 1715 ft 160 kts 44°
2026-05-07 19:38 45.43866 12.26655 1489 ft 156 kts 44°
2026-05-07 19:38 45.44671 12.27687 1296 ft 155 kts 45°
2026-05-07 19:39 45.45466 12.28707 1087 ft 153 kts 45°
2026-05-07 19:39 45.46256 12.29720 888 ft 152 kts 45°
2026-05-07 19:39 45.47038 12.30722 677 ft 150 kts 45°
2026-05-07 19:39 45.47816 12.31718 468 ft 150 kts 45°
2026-05-07 19:40 45.48586 12.32718 265 ft 149 kts 45°
2026-05-07 19:40 45.49359 12.33710 65 ft 149 kts 45°
2026-05-07 19:40 45.50095 12.34659 16 ft 124 kts 41°
2026-05-07 19:40 45.50525 12.35202 14 ft 54 kts 42°
2026-05-07 19:41 45.50700 12.35377 16 ft 23 kts 11°
2026-05-07 19:41 45.50848 12.35389 16 ft 19 kts 359°
2026-05-07 19:41 45.50961 12.35357 18 ft 15 kts 309°
2026-05-07 19:41 45.50948 12.35218 16 ft 15 kts 246°
2026-05-07 19:42 45.50881 12.35107 16 ft 15 kts 223°
2026-05-07 19:42 45.50796 12.34998 16 ft 18 kts 222°
2026-05-07 19:42 45.50700 12.34874 16 ft 19 kts 222°
2026-05-07 19:42 45.50628 12.34759 16 ft 13 kts 264°
2026-05-07 19:43 45.50678 12.34665 16 ft 12 kts 314°
2026-05-07 19:43 45.50730 12.34587 17 ft 10 kts 313°
2026-05-07 19:43 45.50776 12.34516 16 ft 9 kts 313°
2026-05-07 19:43 45.50817 12.34453 16 ft 8 kts 313°
2026-05-07 19:44 45.50853 12.34399 15 ft 6 kts 312°
2026-05-07 19:44 45.50842 12.34363 15 ft 4 kts 218°
2026-05-07 19:44 45.50826 12.34343 16 ft 3 kts 221°
2026-05-07 19:44 45.50816 12.34331 16 ft 1 kts 222°
2026-05-07 19:45 45.50803 12.34313 16 ft 2 kts 222°
2026-05-07 19:45 45.50799 12.34308 16 ft 0 kts 222°